EW5549 Weather Reports


Display with metric or nautical units.
time (UTC)temp
F
wind
direction
speed
MPH
gust
MPH
rain 1hr
in
rain 24hr
in
rain mn
in
humidity
%
barometer
mb
20260901025954 64 32 0.0 1.0 0.00 0.00 0.00 46 1015.4
20260901025449 65 18 0.0 0.0 0.00 0.00 0.00 46 1015.1
20260901024949 65 20 0.0 0.0 0.00 0.00 0.00 46 1015.1
20260901024444 65 20 0.0 0.0 0.00 0.00 0.00 45 1014.9
20260901023942 65 21 0.0 0.0 0.00 0.00 0.00 46 1015.0
20260901023437 68 20 0.0 0.0 0.00 0.00 0.00 43 1015.0
20260901022932 69 115 0.0 0.0 0.00 0.00 0.00 38 1014.9
20260901022428 69 116 2.0 2.0 0.00 0.00 0.00 37 1014.7
20260901021922 70 115 2.0 2.0 0.00 0.00 0.00 38 1014.7
20260901021418 70 115 2.0 2.0 0.00 0.00 0.00 37 1014.6
20260901020913 71 102 2.0 2.0 0.00 0.00 0.00 36 1014.6
20260901020409 71 109 4.0 5.0 0.00 0.00 0.00 34 1014.6
20260901015907 70 95 3.0 3.0 0.00 0.00 0.00 37 1014.6
20260901015404 69 94 4.0 5.0 0.00 0.00 0.00 40 1014.4
20260901014903 71 81 3.0 3.0 0.00 0.00 0.00 40 1014.5
20260901014400 72 71 0.0 1.0 0.00 0.00 0.00 37 1014.6
20260901013855 72 90 3.0 3.0 0.00 0.00 0.00 37 1014.5
20260901013350 72 92 4.0 6.0 0.00 0.00 0.00 36 1014.7
20260901012846 73 71 4.0 5.0 0.00 0.00 0.00 37 1014.6
20260901012341 73 89 3.0 5.0 0.00 0.00 0.00 36 1014.8
20260901011837 74 97 5.0 6.0 0.00 0.00 0.00 34 1014.8
20260901011332 74 91 5.0 6.0 0.00 0.00 0.00 35 1014.8
20260901010825 75 78 6.0 7.0 0.00 0.00 0.00 34 1014.9
20260901010320 75 75 4.0 5.0 0.00 0.00 0.00 33 1014.9
20260901005819 75 99 7.0 7.0 0.00 0.00 0.00 32 1014.8
20260901005314 76 48 6.0 7.0 0.00 0.00 0.00 32 1014.9
20260901004814 76 82 7.0 9.0 0.00 0.00 0.00 32 1015.0
20260901004309 76 90 7.0 8.0 0.00 0.00 0.00 31 1014.9
20260901003808 77 59 5.0 7.0 0.00 0.00 0.00 32 1014.8
20260901003258 77 62 5.0 6.0 0.00 0.00 0.00 31 1015.1
20260901002756 77 90 5.0 6.0 0.00 0.00 0.00 30 1014.9
20260901002252 77 90 5.0 7.0 0.00 0.00 0.00 31 1015.3
20260901001747 77 88 7.0 8.0 0.00 0.00 0.00 30 1015.3
20260901001242 77 103 5.0 6.0 0.00 0.00 0.00 31 1015.1
20260901000737 77 86 5.0 7.0 0.00 0.00 0.00 32 1015.3
20260901000233 78 101 7.0 8.0 0.00 0.00 0.00 30 1015.5
20260831235726 78 87 7.0 9.0 0.00 0.00 0.00 28 1015.3
20260831235222 78 114 9.0 10.0 0.00 0.00 0.00 26 1015.5
20260831234721 78 109 9.0 10.0 0.00 0.00 0.00 26 1015.5
20260831234216 79 129 9.0 10.0 0.00 0.00 0.00 28 1015.5
20260831233711 78 91 9.0 10.0 0.00 0.00 0.00 28 1015.6
20260831233207 78 109 9.0 10.0 0.00 0.00 0.00 27 1015.6
20260831232706 77 100 7.0 9.0 0.00 0.00 0.00 31 1015.7
20260831232203 77 84 9.0 11.0 0.00 0.00 0.00 29 1015.6
20260831231659 77 71 6.0 8.0 0.00 0.00 0.00 31 1015.7
20260831231154 77 112 9.0 11.0 0.00 0.00 0.00 29 1015.9
20260831230649 77 94 10.0 10.0 0.00 0.00 0.00 29 1016.0
20260831230144 77 99 9.0 10.0 0.00 0.00 0.00 30 1015.8
20260831225644 77 92 8.0 9.0 0.00 0.00 0.00 31 1015.8
20260831225139 77 94 8.0 13.0 0.00 0.00 0.00 31 1016.0
20260831224634 77 72 10.0 11.0 0.00 0.00 0.00 32 1015.9
20260831224129 77 80 9.0 10.0 0.00 0.00 0.00 30 1016.1
20260831223625 77 88 8.0 10.0 0.00 0.00 0.00 32 1016.0
20260831223121 77 46 10.0 11.0 0.00 0.00 0.00 32 1016.1
20260831222616 76 87 8.0 10.0 0.00 0.00 0.00 33 1016.3
20260831222112 76 81 9.0 10.0 0.00 0.00 0.00 33 1016.3
20260831221607 76 97 10.0 13.0 0.00 0.00 0.00 30 1016.4
20260831221102 76 118 7.0 8.0 0.00 0.00 0.00 32 1016.4
20260831220601 76 93 10.0 11.0 0.00 0.00 0.00 30 1016.3
20260831220058 76 98 10.0 11.0 0.00 0.00 0.00 32 1016.5
20260831215548 76 83 9.0 11.0 0.00 0.00 0.00 32 1016.6
20260831215043 76 100 10.0 10.0 0.00 0.00 0.00 31 1016.8
20260831214541 75 76 9.0 10.0 0.00 0.00 0.00 33 1016.8
20260831214036 76 95 12.0 15.0 0.00 0.00 0.00 31 1016.7
20260831213533 75 95 12.0 14.0 0.00 0.00 0.00 33 1017.0
20260831213028 75 110 11.0 13.0 0.00 0.00 0.00 31 1016.9
20260831212524 75 110 10.0 13.0 0.00 0.00 0.00 31 1017.2
20260831212019 75 78 10.0 11.0 0.00 0.00 0.00 32 1017.2
20260831211514 75 91 7.0 8.0 0.00 0.00 0.00 30 1017.3
20260831211013 75 67 8.0 11.0 0.00 0.00 0.00 31 1017.3
20260831210508 76 90 9.0 10.0 0.00 0.00 0.00 28 1017.3
20260831210005 74 97 8.0 8.0 0.00 0.00 0.00 31 1017.4
20260831205459 74 79 8.0 9.0 0.00 0.00 0.00 30 1017.5
20260831204955 74 90 4.0 6.0 0.00 0.00 0.00 30 1017.6
20260831204454 74 77 7.0 9.0 0.00 0.00 0.00 31 1017.9
20260831203953 74 97 7.0 8.0 0.00 0.00 0.00 32 1017.5
20260831203448 73 100 8.0 9.0 0.00 0.00 0.00 29 1017.8
20260831202946 73 113 9.0 10.0 0.00 0.00 0.00 28 1017.7
20260831202442 73 87 8.0 9.0 0.00 0.00 0.00 31 1017.6
20260831201940 73 64 6.0 7.0 0.00 0.00 0.00 29 1017.8
20260831201439 73 105 8.0 9.0 0.00 0.00 0.00 29 1017.9
20260831200935 72 100 8.0 9.0 0.00 0.00 0.00 29 1018.0
20260831200430 72 92 8.0 10.0 0.00 0.00 0.00 28 1018.0
20260831195930 72 92 10.0 11.0 0.00 0.00 0.00 29 1018.2
20260831195426 72 71 9.0 13.0 0.00 0.00 0.00 31 1018.2
20260831194921 71 104 7.0 8.0 0.00 0.00 0.00 28 1018.4
20260831194416 72 103 7.0 8.0 0.00 0.00 0.00 30 1018.4
20260831193915 71 108 7.0 8.0 0.00 0.00 0.00 30 1018.5
20260831193411 71 96 6.0 8.0 0.00 0.00 0.00 33 1018.5
20260831192906 71 114 8.0 8.0 0.00 0.00 0.00 30 1018.6
20260831192401 71 92 7.0 9.0 0.00 0.00 0.00 33 1018.7
20260831191856 70 61 7.0 8.0 0.00 0.00 0.00 32 1018.7
20260831191352 70 106 7.0 8.0 0.00 0.00 0.00 30 1018.7
20260831190848 71 67 5.0 9.0 0.00 0.00 0.00 32 1018.7
20260831190348 70 98 5.0 7.0 0.00 0.00 0.00 34 1018.8
20260831185847 69 112 8.0 9.0 0.00 0.00 0.00 34 1018.9
20260831185343 69 83 6.0 9.0 0.00 0.00 0.00 37 1019.1
20260831184842 69 88 9.0 10.0 0.00 0.00 0.00 36 1019.3
20260831184338 69 67 6.0 8.0 0.00 0.00 0.00 36 1019.3
20260831183833 69 94 7.0 8.0 0.00 0.00 0.00 34 1019.4
20260831183332 69 78 7.0 7.0 0.00 0.00 0.00 35 1019.2
20260831182832 69 93 9.0 10.0 0.00 0.00 0.00 35 1019.5
20260831182327 69 105 11.0 11.0 0.00 0.00 0.00 36 1019.4
20260831181822 68 101 8.0 9.0 0.00 0.00 0.00 36 1019.5
20260831181317 68 77 8.0 9.0 0.00 0.00 0.00 36 1019.7
20260831180812 68 57 7.0 8.0 0.00 0.00 0.00 37 1019.8
20260831180307 67 90 6.0 8.0 0.00 0.00 0.00 38 1020.1
20260831175806 68 111 6.0 8.0 0.00 0.00 0.00 39 1019.8
20260831175306 68 55 5.0 8.0 0.00 0.00 0.00 37 1020.1
20260831174758 67 50 7.0 8.0 0.00 0.00 0.00 39 1019.9
20260831174254 67 91 5.0 6.0 0.00 0.00 0.00 40 1020.1
20260831173753 66 86 8.0 8.0 0.00 0.00 0.00 39 1019.9
20260831173247 66 58 4.0 5.0 0.00 0.00 0.00 42 1020.2
20260831172742 66 45 3.0 3.0 0.00 0.00 0.00 43 1020.3
20260831172238 65 93 4.0 5.0 0.00 0.00 0.00 42 1020.3
20260831171732 65 65 3.0 6.0 0.00 0.00 0.00 45 1020.2
20260831171230 65 56 3.0 3.0 0.00 0.00 0.00 45 1020.1
20260831170726 65 80 1.0 2.0 0.00 0.00 0.00 45 1020.2
20260831170222 64 62 4.0 6.0 0.00 0.00 0.00 49 1020.4
20260831165718 64 80 5.0 7.0 0.00 0.00 0.00 50 1020.4
20260831165214 64 98 3.0 3.0 0.00 0.00 0.00 51 1020.4
20260831164710 63 130 5.0 6.0 0.00 0.00 0.00 52 1020.5
20260831164206 62 86 4.0 5.0 0.00 0.00 0.00 54 1020.4
20260831163701 63 56 1.0 1.0 0.00 0.00 0.00 54 1020.3
20260831163157 62 85 4.0 6.0 0.00 0.00 0.00 54 1020.3
20260831162655 62 83 2.0 3.0 0.00 0.00 0.00 56 1020.5
20260831162154 61 67 3.0 3.0 0.00 0.00 0.00 57 1020.4
20260831161649 62 94 0.0 0.0 0.00 0.00 0.00 54 1020.4
20260831161146 60 110 3.0 3.0 0.00 0.00 0.00 56 1020.5
20260831160645 60 93 3.0 3.0 0.00 0.00 0.00 55 1020.6
20260831160140 59 74 0.0 1.0 0.00 0.00 0.00 58 1020.4
20260831155640 59 105 3.0 3.0 0.00 0.00 0.00 56 1020.6
20260831155135 59 89 2.0 2.0 0.00 0.00 0.00 55 1020.5
20260831154631 58 101 1.0 1.0 0.00 0.00 0.00 55 1020.4
20260831154126 58 66 0.0 0.0 0.00 0.00 0.00 56 1020.5
20260831153625 59 96 2.0 2.0 0.00 0.00 0.00 51 1020.6
20260831153122 58 73 0.0 1.0 0.00 0.00 0.00 55 1020.6
20260831152617 57 60 0.0 0.0 0.00 0.00 0.00 58 1021.1
20260831152113 56 54 0.0 0.0 0.00 0.00 0.00 64 1020.8
20260831151612 56 70 0.0 0.0 0.00 0.00 0.00 60 1020.9
20260831151107 56 58 2.0 3.0 0.00 0.00 0.00 59 1020.7
20260831150602 55 75 0.0 0.0 0.00 0.00 0.00 62 1020.7
20260831150058 53 164 0.0 1.0 0.00 0.00 0.00 63 1020.6
20260831145552 53 131 1.0 1.0 0.00 0.00 0.00 64 1020.5
20260831145048 52 131 0.0 0.0 0.00 0.00 0.00 65 1020.7
20260831144543 51 131 1.0 1.0 0.00 0.00 0.00 66 1020.7
20260831144039 51 104 2.0 2.0 0.00 0.00 0.00 66 1020.5
20260831143533 51 88 1.0 1.0 0.00 0.00 0.00 68 1020.8
20260831143029 51 66 1.0 1.0 0.00 0.00 0.00 69 1021.1
20260831142526 52 74 0.0 0.0 0.00 0.00 0.00 67 1020.7
20260831142021 51 55 0.0 0.0 0.00 0.00 0.00 69 1020.7
20260831141519 50 58 0.0 1.0 0.00 0.00 0.00 69 1020.4
20260831141014 49 76 0.0 0.0 0.00 0.00 0.00 72 1020.4
20260831140514 48 60 0.0 0.0 0.00 0.00 0.00 75 1020.5
20260831140014 47 50 0.0 0.0 0.00 0.00 0.00 76 1020.4
20260831135512 46 75 0.0 1.0 0.00 0.00 0.00 77 1020.4
20260831135007 46 86 0.0 0.0 0.00 0.00 0.00 79 1020.3
20260831134504 45 86 1.0 1.0 0.00 0.00 0.00 79 1020.4
20260831134003 44 82 0.0 0.0 0.00 0.00 0.00 80 1020.2
20260831133458 44 81 0.0 1.0 0.00 0.00 0.00 83 1020.4
20260831132953 43 81 0.0 0.0 0.00 0.00 0.00 84 1020.2
20260831132448 44 73 0.0 0.0 0.00 0.00 0.00 83 1019.9
20260831131948 44 86 2.0 2.0 0.00 0.00 0.00 81 1020.1
20260831131442 44 19 1.0 2.0 0.00 0.00 0.00 80 1019.9
20260831130938 43 40 0.0 0.0 0.00 0.00 0.00 83 1019.9
20260831130434 42 75 0.0 0.0 0.00 0.00 0.00 85 1019.9
20260831125933 42 77 0.0 0.0 0.00 0.00 0.00 86 1019.9
20260831125433 43 52 0.0 0.0 0.00 0.00 0.00 84 1019.8
20260831124929 42 33 1.0 1.0 0.00 0.00 0.00 85 1019.9
20260831124425 43 134 0.0 0.0 0.00 0.00 0.00 84 1019.7
20260831123920 43 134 0.0 1.0 0.00 0.00 0.00 83 1019.7
20260831123419 43 134 3.0 3.0 0.00 0.00 0.00 84 1019.8
20260831122914 43 74 0.0 0.0 0.00 0.00 0.00 83 1019.7
20260831122409 44 74 0.0 0.0 0.00 0.00 0.00 83 1019.6
20260831121904 44 74 0.0 0.0 0.00 0.00 0.00 81 1019.9
20260831121400 46 133 0.0 0.0 0.00 0.00 0.00 74 1019.6
20260831120855 46 133 0.0 0.0 0.00 0.00 0.00 72 1019.5
20260831120350 47 134 2.0 2.0 0.00 0.00 0.00 69 1019.4
20260831115844 46 165 3.0 3.0 0.00 0.00 0.00 69 1019.4
20260831115341 47 200 3.0 3.0 0.00 0.00 0.00 72 1019.4
20260831114840 47 102 3.0 3.0 0.00 0.00 0.00 76 1019.4
20260831114339 46 98 2.0 2.0 0.00 0.00 0.00 77 1019.4
20260831113835 46 94 0.0 1.0 0.00 0.00 0.00 77 1019.5
20260831113335 45 75 0.0 0.0 0.00 0.00 0.00 78 1019.4
20260831112829 45 68 1.0 2.0 0.00 0.00 0.00 79 1019.4
20260831112324 46 83 1.0 1.0 0.00 0.00 0.00 75 1019.3
20260831111820 48 64 2.0 3.0 0.00 0.00 0.00 70 1019.1
20260831111316 48 89 0.0 0.0 0.00 0.00 0.00 68 1019.2
20260831110812 47 89 0.0 0.0 0.00 0.00 0.00 73 1019.2
20260831110307 48 89 0.0 1.0 0.00 0.00 0.00 71 1019.2
20260831105805 48 89 2.0 2.0 0.00 0.00 0.00 69 1019.3
20260831105301 48 89 1.0 2.0 0.00 0.00 0.00 69 1019.2
20260831104755 47 106 2.0 2.0 0.00 0.00 0.00 70 1019.4
20260831104252 46 106 3.0 3.0 0.00 0.00 0.00 73 1019.3
20260831103752 47 80 3.0 3.0 0.00 0.00 0.00 73 1019.1
20260831103248 47 78 2.0 2.0 0.00 0.00 0.00 72 1019.4
20260831102748 46 63 1.0 1.0 0.00 0.00 0.00 76 1019.3
20260831102242 48 57 2.0 2.0 0.00 0.00 0.00 74 1019.5
20260831101738 48 79 1.0 1.0 0.00 0.00 0.00 70 1019.2
20260831101233 48 71 0.0 0.0 0.00 0.00 0.00 70 1019.2
20260831100729 48 70 0.0 0.0 0.00 0.00 0.00 72 1019.3
20260831100225 48 72 0.0 0.0 0.00 0.00 0.00 71 1019.2
20260831095724 48 70 0.0 0.0 0.00 0.00 0.00 71 1019.2
20260831095219 49 60 0.0 0.0 0.00 0.00 0.00 71 1019.3
20260831094714 49 60 0.0 0.0 0.00 0.00 0.00 69 1019.2
20260831094210 49 61 0.0 0.0 0.00 0.00 0.00 68 1019.2
20260831093705 48 59 0.0 0.0 0.00 0.00 0.00 71 1019.2
20260831093201 48 59 0.0 0.0 0.00 0.00 0.00 72 1018.9
20260831092657 48 44 0.0 0.0 0.00 0.00 0.00 73 1018.9
20260831092152 48 41 0.0 0.0 0.00 0.00 0.00 73 1019.1
20260831091651 48 42 0.0 0.0 0.00 0.00 0.00 72 1019.1
20260831091148 48 48 0.0 0.0 0.00 0.00 0.00 73 1018.9
20260831090642 48 52 0.0 0.0 0.00 0.00 0.00 74 1018.7
20260831090139 49 50 2.0 2.0 0.00 0.00 0.00 69 1018.8
20260831085633 49 51 0.0 0.0 0.00 0.00 0.00 68 1018.9
20260831085129 48 51 0.0 0.0 0.00 0.00 0.00 68 1019.1
20260831084625 49 51 1.0 2.0 0.00 0.00 0.00 70 1018.8
20260831084121 51 262 0.0 0.0 0.00 0.00 0.00 63 1018.8
20260831083617 51 253 4.0 5.0 0.00 0.00 0.00 62 1018.7
20260831083112 51 242 3.0 3.0 0.00 0.00 0.00 61 1018.9
20260831082610 52 256 3.0 5.0 0.00 0.00 0.00 59 1019.1
20260831082106 52 269 3.0 3.0 0.00 0.00 0.00 59 1019.1
20260831081601 51 269 3.0 3.0 0.00 0.00 0.00 59 1019.1
20260831081057 52 280 3.0 3.0 0.00 0.00 0.00 59 1019.1
20260831080552 51 306 4.0 5.0 0.00 0.00 0.00 60 1018.8
20260831080047 51 359 2.0 2.0 0.00 0.00 0.00 60 1019.1
20260831075542 50 18 0.0 0.0 0.00 0.00 0.00 63 1018.8
20260831075038 51 52 0.0 0.0 0.00 0.00 0.00 61 1019.1
20260831074537 51 52 0.0 0.0 0.00 0.00 0.00 61 1019.1
20260831074037 50 50 0.0 0.0 0.00 0.00 0.00 63 1019.1
20260831073532 50 60 1.0 1.0 0.00 0.00 0.00 66 1018.9
20260831073031 49 61 1.0 1.0 0.00 0.00 0.00 66 1019.1
20260831072527 49 50 1.0 1.0 0.00 0.00 0.00 65 1019.2
20260831072024 48 61 0.0 0.0 0.00 0.00 0.00 69 1019.1
20260831071522 48 63 0.0 0.0 0.00 0.00 0.00 70 1018.7
20260831071018 49 56 0.0 0.0 0.00 0.00 0.00 68 1018.8
20260831070516 49 64 0.0 0.0 0.00 0.00 0.00 67 1019.1
20260831070011 50 20 1.0 1.0 0.00 0.00 0.00 66 1018.8
20260831065509 51 325 2.0 2.0 0.00 0.00 0.00 62 1018.8
20260831065003 51 10 1.0 1.0 0.00 0.00 0.00 61 1018.8
20260831064459 50 10 2.0 2.0 0.00 0.00 0.00 62 1018.8
20260831063954 51 41 0.0 1.0 0.00 0.00 0.00 63 1018.7
20260831063449 51 28 2.0 2.0 0.00 0.00 0.00 62 1018.7
20260831062943 51 54 0.0 0.0 0.00 0.00 0.00 64 1018.7
20260831062439 51 61 0.0 0.0 0.00 0.00 0.00 60 1018.8
20260831061938 51 63 0.0 0.0 0.00 0.00 0.00 63 1018.7
20260831061436 50 83 1.0 1.0 0.00 0.00 0.00 66 1018.8
20260831060933 51 83 2.0 2.0 0.00 0.00 0.00 64 1019.1
20260831060433 53 77 0.0 1.0 0.00 0.00 0.00 61 1018.9
20260831055933 53 110 0.0 0.0 0.00 0.04 0.04 58 1018.8
20260831055428 53 110 1.0 1.0 0.00 0.04 0.04 57 1018.8
20260831054923 52 112 2.0 2.0 0.00 0.04 0.04 59 1018.9
20260831054418 52 63 0.0 0.0 0.00 0.04 0.04 60 1018.9
20260831053917 52 64 0.0 0.0 0.00 0.04 0.04 61 1018.9
20260831053415 53 67 0.0 0.0 0.00 0.04 0.04 57 1018.8
20260831052911 54 61 0.0 0.0 0.00 0.04 0.04 57 1018.7
20260831052410 54 86 2.0 2.0 0.00 0.04 0.04 55 1018.6
20260831051908 56 36 1.0 1.0 0.00 0.04 0.04 53 1018.4
20260831051407 55 7 1.0 2.0 0.00 0.04 0.04 52 1018.5
20260831050902 54 13 0.0 0.0 0.00 0.04 0.04 54 1018.2
20260831050356 55 11 1.0 1.0 0.00 0.04 0.04 57 1018.3
20260831045850 55 10 0.0 0.0 0.00 0.04 0.04 53 1018.4
20260831045349 56 358 2.0 2.0 0.00 0.04 0.04 53 1018.3
20260831044844 57 341 1.0 2.0 0.00 0.04 0.04 51 1018.0
20260831044339 57 329 3.0 3.0 0.00 0.04 0.04 48 1017.9
20260831043835 57 295 4.0 5.0 0.00 0.04 0.04 49 1018.2
20260831043334 57 287 3.0 3.0 0.00 0.04 0.04 50 1018.0
20260831042829 55 272 3.0 3.0 0.00 0.04 0.04 52 1018.0
20260831042329 56 259 2.0 2.0 0.00 0.04 0.04 54 1018.0
20260831041825 56 351 2.0 2.0 0.00 0.04 0.04 50 1017.7
20260831041324 57 352 1.0 1.0 0.00 0.04 0.04 52 1017.8
20260831040819 56 351 1.0 2.0 0.00 0.04 0.04 53 1017.7
20260831040318 55 350 2.0 2.0 0.00 0.04 0.04 52 1017.7
20260831035817 55 350 1.0 1.0 0.00 0.04 0.04 56 1017.6
20260831035315 57 350 1.0 1.0 0.00 0.04 0.04 52 1017.5
20260831034810 56 349 2.0 2.0 0.00 0.04 0.04 50 1017.5
20260831034306 55 351 0.0 0.0 0.00 0.04 0.04 55 1017.4
20260831033801 56 351 0.0 0.0 0.00 0.04 0.04 54 1017.5
20260831033301 57 350 2.0 2.0 0.00 0.04 0.04 51 1017.2
20260831032756 57 352 0.0 0.0 0.00 0.04 0.04 53 1016.9
20260831032250 56 353 0.0 0.0 0.00 0.04 0.04 52 1016.9
20260831031746 55 353 0.0 1.0 0.00 0.04 0.04 53 1016.9
20260831031245 56 352 0.0 0.0 0.00 0.04 0.04 52 1016.9
20260831030740 56 352 0.0 1.0 0.00 0.04 0.04 52 1016.8
20260831030238 57 352 0.0 1.0 0.00 0.04 0.04 51 1016.6